Location: Arrodets-la-Barthe
(43.0306°N, 0.2829°E)
Time: 00:42:06
(UTC+00:00)

NOAA 19 - Pass Details

Date: 08 April 2023
Orbit: 840 x 859 km, 99.1° (Epoch: 29 May)

Event Time Altitude Azimuth Distance (km) Brightness Sun altitude
Exits shadow 20:23:35 - 186° (S) 2,903 7.7 -19.6°
Reaches altitude 10° 20:24:46 10° 190° (S) 2,458 7.4 -19.8°
Maximum altitude 20:29:56 43° 261° (W) 1,174 6.3 -20.6°
Drops below altitude 10° 20:35:07 10° 332° (NNW) 2,467 8.5 -21.4°
Sets 20:37:37 0° 339° (NNW) 3,406 9.2 -21.8°
